Location: ?????
(38.2883°N, 23.8022°E)
Time: 13:40:16
(UTC+00:00)

Daily predictions for brighter satellites

Satellite Brightness Start Highest point End
(mag) Time Altitude Azimuth Time Altitude Azimuth Time Altitude Azimuth
Cosmos 2360 Rocket 2.7 16:51:54 10° N 16:57:12 39° ENE 17:02:27 10° SE
Meteor 1-13 Rocket 4.4 16:51:26 10° N 16:57:19 61° E 17:03:10 10° SSE
OAO 2 Rocket 4.2 16:54:23 10° W 16:59:13 44° SSW 17:04:09 10° SE
Sich 1 4.5 16:55:59 10° SSW 17:00:05 44° W 17:04:14 10° N
Cosmos 1437 Rocket 3.4 16:56:57 10° SSE 17:00:39 35° E 17:04:21 10° NNE
PAYLOAD B 4.3 16:57:19 10° SSE 17:02:44 64° ENE 17:08:14 10° N
Cosmos 2251 Rocket 3.6 16:57:46 10° N 17:02:58 56° ENE 17:08:05 10° SSE
Cosmos 1605 Rocket 4.1 16:58:23 10° N 17:04:48 75° E 17:11:09 10° SSE
CZ-4B DEB 4.3 17:00:40 10° SSE 17:06:12 88° WSW 17:11:47 10° NNW
Cosmos 2237 4.3 17:01:14 10° NNW 17:06:59 87° ENE 17:12:40 10° SSE
USA 308 4.3 17:08:28 10° NNW 17:11:16 19° NNE 17:14:03 10° ENE
Cosmos 1743 3.8 17:08:05 10° SSW 17:11:47 48° W 17:15:29 10° N
Exosat Rocket 4.0 17:07:53 10° S 17:12:30 40° ESE 17:17:47 10° NE
Meteor 1-11 Rocket 4.0 17:08:30 10° SSW 17:14:27 80° W 17:20:21 10° N
Milstar 3 Cent rocket 4.0 17:09:41 10° WSW 17:15:28 39° S 17:26:05 10° ESE
Tiangong -1.7 17:13:33 10° WNW 17:16:38 56° SSW 17:19:34 11° SE
Cosmos 1470 Rocket 3.7 17:14:20 10° S 17:18:40 56° E 17:23:04 10° NNE
Cosmos 1023 Rocket 4.5 17:14:12 10° NNW 17:19:25 76° ENE 17:24:38 10° SSE
Okean O Rocket 2.0 17:17:35 10° SE 17:21:45 42° ENE 17:25:55 10° N
H-2A R/B 4.0 17:25:25 10° SSW 17:27:25 14° S 17:30:34 10° SSE
IGS 5A 3.6 17:28:09 10° SSE 17:32:07 51° ENE 17:36:07 10° N
Cosmos 1140 Rocket 3.5 17:27:26 10° NNW 17:32:39 86° WSW 17:37:51 10° SSE
Cosmos 1727 Rocket 4.0 17:27:40 10° S 17:34:00 85° E 17:40:20 10° N
Cosmos 2333 4.4 17:31:32 10° NNW 17:37:13 54° ENE 17:42:42 11° SE
YAOGAN 1 3.2 17:33:28 10° S 17:37:42 58° W 17:41:58 10° NNW
CSL-04 Rocket 4.3 17:34:34 10° SE 17:39:34 37° ENE 17:44:36 10° N
Cosmos 2322 Rocket 2.8 17:35:56 10° NNW 17:41:33 60° WSW 17:47:08 10° S
SL-27 R/B 2.3 17:39:25 10° S 17:42:40 54° ESE 17:45:54 10° NNE
Cosmos 2237 Rocket 4.2 17:42:05 10° NE 17:42:50 10° NE 17:43:36 10° NE
ISS -1.2 17:41:12 10° WNW 17:43:34 18° NNW 17:45:57 10° NNE
Cosmos 2084 Rocket 3.6 17:40:05 10° NNW 17:43:44 42° NE 17:45:29 25° ESE
Cosmos 1975 3.0 17:41:54 10° SSE 17:45:37 43° E 17:49:24 10° NNE
USA 306 3.1 17:42:40 10° NW 17:46:17 43° NE 17:47:47 28° E
USA 267 3.8 17:40:59 10° SSE 17:47:24 57° SW 17:53:52 10° NW
In-Cosmos 22 4.2 17:42:24 10° N 17:48:00 63° E 17:53:40 10° SSE
Cosmos 1818 4.5 17:44:45 10° NNW 17:49:36 31° NE 17:51:47 24° E
Cosmos 407 Rocket 3.8 17:44:23 10° NNW 17:49:42 74° WSW 17:55:00 10° S
CZ-4B R/B 3.6 17:44:16 10° S 17:49:54 71° WSW 17:55:34 10° NNW
Cosmos 1842 3.5 17:47:15 10° NNW 17:51:02 68° W 17:54:48 10° S
SJ-6B 2.8 17:47:31 11° SSE 17:51:15 60° ENE 17:55:07 10° N
Cosmos 1371 Rocket 4.2 17:48:18 10° SSW 17:53:35 74° WNW 17:58:51 10° NNE
USA 186 1.8 17:53:16 39° ESE 17:54:00 50° ENE 17:57:01 10° N
Cosmos 2322 4.2 17:49:28 10° N 17:54:49 41° ENE 17:57:24 26° ESE
KORONAS-FOTON 3.7 17:52:00 10° N 17:55:46 60° E 17:58:07 21° SSE
FALCON 9 R/B 4.1 17:23:39 10° WSW 17:55:59 67° S 18:01:53 24° E
Cosmos 1626 1.8 17:52:58 10° N 17:56:32 73° E 17:59:02 18° SSE
Cosmos 2333 Rocket 2.2 17:54:36 10° NNW 18:00:24 90° ENE 18:05:43 12° SSE
Cosmos 2056 Rocket 3.9 17:57:19 10° SSW 18:02:25 64° WNW 18:07:31 10° NNE
CZ-4 R/B 2.4 18:02:21 10° S 18:05:58 42° W 18:09:39 10° NNW
Feng Yun 1-1 Rocket 4.4 18:01:35 10° S 18:07:01 75° WSW 18:12:37 10° NNW
Cosmos 1933 Rocket 3.8 18:05:57 10° SSW 18:10:14 67° W 18:14:33 10° N
Timation 1 Rocket 4.5 18:04:40 10° SSW 18:10:39 77° WNW 18:16:41 10° NNE
SPOT 1/Viking Rocket 4.0 18:09:33 35° E 18:10:39 40° ENE 18:15:28 10° N
Cosmos 2219 Rocket 2.1 18:05:28 10° NNW 18:11:10 73° ENE 18:14:16 28° SSE
COSMOS 2428 3.1 18:06:09 10° N 18:11:37 43° ENE 18:13:06 36° E
CSL-04 Debris 4.1 18:08:21 13° SSE 18:13:16 82° ENE 18:18:43 10° NNW
Cosmos 1459 Rocket 3.8 18:07:19 10° N 18:13:23 88° E 18:19:27 10° S
Cosmos 1707 3.0 18:09:38 10° NNW 18:13:24 64° W 18:16:29 14° S
Geosat 4.3 18:14:09 40° E 18:15:21 48° ENE 18:20:11 10° NNW
Cosmos 1725 Rocket 4.0 18:09:57 10° N 18:16:02 56° E 18:19:08 29° SE
Resurs 01 Rocket 2.4 18:17:20 34° NE 18:17:20 34° NE 18:20:46 10° N
USA 307 2.6 18:14:18 10° NW 18:18:06 63° NE 18:18:12 62° NE
USA 305 2.6 18:14:31 10° NW 18:18:17 60° NE 18:18:19 60° NE
Cosmos 1869 Rocket 3.3 18:15:02 10° S 18:19:19 73° E 18:23:38 10° N
CENTAUR R/B 3.5 18:13:40 10° NNW 18:21:48 52° NE 18:25:32 34° ESE
FALCON 9 R/B 3.9 18:17:12 10° WSW 18:22:42 39° S 18:30:18 26° SE
Okean 1-7 3.6 18:20:09 10° NNW 18:24:26 56° W 18:28:17 12° S
Cosmos 1802 Rocket 3.9 18:20:15 10° N 18:26:31 88° E 18:32:05 14° S
Okean 2 4.4 18:24:28 10° N 18:26:57 32° NNE 18:26:57 32° NNE
IRS-1C Rocket 4.0 18:27:49 50° SE 18:29:02 65° ENE 18:34:15 10° N
Cosmos 2098 Rocket 3.7 18:31:08 10° SSW 18:35:48 69° W 18:41:39 10° N
Iridium 4 Rocket 2.9 18:33:40 10° N 18:37:44 82° NW 18:37:44 82° NW
Cosmos 1674 4.1 18:34:52 10° NNW 18:38:17 36° W 18:39:55 24° SW
Cosmos 1452 Rocket 3.3 18:34:57 10° SSW 18:40:12 83° ESE 18:45:31 10° NNE
Cosmos 2360 Rocket 4.1 18:36:18 10° NW 18:40:57 27° WSW 18:45:34 10° SSW
Resurs 1-3 4.5 18:40:57 26° SSW 18:43:02 47° W 18:47:16 10° NNW
Cosmos 2123 Rocket 4.3 18:37:27 10° SSW 18:43:40 66° W 18:49:57 10° N
Okean-O 2.8 18:43:42 60° SW 18:44:16 67° WSW 18:48:41 10° NNW
Cosmos 676 Rocket 4.4 18:42:03 10° NNW 18:47:11 60° WSW 18:48:49 41° SSW
Cosmos 2016 Rocket 4.0 18:42:00 10° N 18:48:04 75° W 18:51:21 29° S
USA 308 3.8 18:45:58 10° NW 18:48:34 40° WNW 18:48:34 40° WNW
SL-16 R/B 4.5 18:48:05 10° NNE 18:48:40 11° NNE 18:48:40 11° NNE
Cosmos 1447 Rocket 4.5 18:58:52 63° NE 18:58:52 63° NE 19:04:18 10° NNE
Okean O Rocket 4.4 18:55:31 10° SW 18:58:13 16° W 19:00:56 10° NW
Cosmos 1867 4.1 19:10:06 10° SW 19:14:33 53° W 19:14:33 53° W
NOSS 0 Rocket 4.0 19:10:10 10° NNW 19:15:43 73° NNW 19:15:43 73° NNW
Cosmos 2237 Rocket 3.3 19:22:21 10° NNW 19:25:46 37° N 19:25:46 37° N
CZ-4C R/B 4.5 19:40:55 10° N 19:45:25 22° NNE 19:45:25 22° NNE
NOSS 3-2 (A) 4.4 19:45:22 10° NW 19:53:06 59° WSW 19:53:10 59° WSW
Resurs 01 Rocket 4.4 19:54:51 16° WNW 19:54:51 16° WNW 19:56:24 10° NW
NOSS 3-2 (C) 4.3 19:53:44 10° NNW 20:00:12 66° NW 20:00:12 66° NW
CENTAUR R/B 4.0 20:04:36 10° NW 20:12:37 44° WSW 20:12:45 44° WSW
